Weather History for KNEW - April, 2013

Change the Weather History Date:

Monday, April 29, 2013

  Actual Average Record
Temperature  
Mean Temperature 72 °F 73 °F  
Max Temperature 82 °F 81 °F 90 °F (2002)
Min Temperature 62 °F 64 °F 45 °F (1973)
Degree Days  
Heating Degree Days 0 0  
Month to date heating degree days 32 32  
Since 1 July heating degree days 1130 1277  
Cooling Degree Days 7 8  
Month to date cooling degree days 129 150  
Year to date cooling degree days 197 250  
Growing Degree Days 24 (Base 50)    
Moisture  
Dew Point 65 °F    
Average Humidity 74    
Maximum Humidity 93    
Minimum Humidity 54    
Precipitation  
Precipitation 0.00 in 0.16 in 1.86 in (1991)
Month to date precipitation 11.04 4.45  
Year to date precipitation 25.92 19.45  
Snow  
Snow 0.00 in - - ()
Month to date snowfall 0.0  
Since 1 July snowfall 0.0  
Snow Depth 0.00 in    
Sea Level Pressure  
Sea Level Pressure 29.92 in    
Wind  
Wind Speed 6 mph (East)    
Max Wind Speed 16 mph    
Max Gust Speed 23 mph    
Visibility 10 miles    
Events Thunderstorm    
T = Trace of Precipitation, MM = Missing Value Source: NWS Daily Summary

Daily Weather History Graph

Daily Weather History Graph

Search for Another Location

Airport or City:

Trip Planner

Search our weather history database for the weather conditions in past years. The results will help you decide how hot, cold, wet, or windy it might be!

Date:

Astronomy

Apr. 29, 2013 Rise Set
Actual Time 6:18 AM CDT 7:36 PM CDT
Civil Twilight 5:53 AM CDT 8:01 PM CDT
Nautical Twilight 5:23 AM CDT 8:31 PM CDT
Astronomical Twilight 4:52 AM CDT 9:03 PM CDT
Moon 11:55 PM CDT (4/29) 9:46 AM CDT (4/29)
Length of Visible Light 14h 08m
Length of Day
13h 17m
Waning Gibbous, 80% of the Moon is Illuminated
Apr 29
Waning Gibbous
May 2
Last Quarter
May 9
New
May 17
First Quarter
May 24
Full

Hourly Weather History & Observations

Time (CDT) Temp. Heat Index Dew Point Humidity Pressure Visibility Wind Dir Wind Speed Gust Speed Precip Events Conditions
12:53 AM 66.9 °F - 61.0 °F 81% 29.95 in 10.0 mi ESE 4.6 mph - N/A   Scattered Clouds
1:53 AM 66.0 °F - 61.0 °F 84% 29.93 in 10.0 mi South 6.9 mph - N/A   Clear
2:53 AM 66.0 °F - 60.1 °F 81% 29.91 in 10.0 mi South 6.9 mph - N/A   Clear
3:53 AM 68.0 °F - 61.0 °F 78% 29.92 in 10.0 mi ENE 4.6 mph - N/A   Partly Cloudy
4:53 AM 69.1 °F - 63.0 °F 81% 29.92 in 10.0 mi NE 5.8 mph - N/A   Clear
5:53 AM 68.0 °F - 63.0 °F 84% 29.93 in 10.0 mi NE 5.8 mph - N/A   Clear
6:53 AM 68.0 °F - 62.1 °F 81% 29.94 in 10.0 mi ENE 6.9 mph - N/A   Clear
7:53 AM 69.1 °F - 63.0 °F 81% 29.96 in 10.0 mi ENE 8.1 mph - N/A   Clear
8:53 AM 70.0 °F - 62.1 °F 76% 29.96 in 10.0 mi ENE 10.4 mph - N/A   Clear
9:53 AM 73.0 °F - 63.0 °F 71% 29.97 in 10.0 mi ENE 9.2 mph - N/A   Clear
10:53 AM 73.9 °F - 64.0 °F 71% 29.98 in 10.0 mi NE 9.2 mph - N/A   Clear
11:53 AM 75.9 °F - 66.0 °F 71% 29.97 in 10.0 mi NE 8.1 mph - N/A   Partly Cloudy
12:53 PM 75.9 °F - 66.9 °F 74% 29.95 in 10.0 mi NNE 9.2 mph - N/A   Mostly Cloudy
1:53 PM 79.0 °F - 68.0 °F 69% 29.94 in 10.0 mi NE 9.2 mph - N/A   Clear
2:53 PM 79.0 °F - 66.9 °F 66% 29.91 in 10.0 mi NNE 6.9 mph - N/A   Mostly Cloudy
3:53 PM 81.0 °F 83.0 °F 66.0 °F 60% 29.89 in 10.0 mi NE 6.9 mph - N/A   Partly Cloudy
4:31 PM 78.8 °F - 62.6 °F 57% 29.92 in 10.0 mi SE 8.1 mph - N/A Thunderstorm Thunderstorm
4:53 PM 78.1 °F - 63.0 °F 60% 29.90 in 10.0 mi SSW 10.4 mph - N/A Thunderstorm Thunderstorm
5:24 PM 75.2 °F - 69.8 °F 83% 29.90 in 10.0 mi South 6.9 mph - 0.00 in   Mostly Cloudy
5:53 PM 75.0 °F - 66.9 °F 76% 29.88 in 10.0 mi South 5.8 mph - 0.00 in   Clear
6:53 PM 75.9 °F - 66.9 °F 74% 29.87 in 10.0 mi ESE 4.6 mph - N/A   Clear
7:53 PM 75.0 °F - 66.9 °F 76% 29.87 in 10.0 mi SE 6.9 mph - N/A   Clear
8:53 PM 73.0 °F - 66.9 °F 81% 29.89 in 10.0 mi SE 5.8 mph - N/A   Clear
9:53 PM 73.0 °F - 66.9 °F 81% 29.91 in 10.0 mi SE 9.2 mph - N/A   Clear
10:53 PM 72.0 °F - 68.0 °F 87% 29.91 in 9.0 mi SE 6.9 mph - N/A   Clear
11:53 PM 72.0 °F - 68.0 °F 87% 29.91 in 9.0 mi SSE 8.1 mph - N/A   Clear